Voltar ao catálogo

LASARsat

LASARSAT

AtivoRádio AmadorVLEO
NORAD 62391·PAYLOAD·🇨🇿 Czechia

Lançado Dec 21, 2024 de Vandenberg Space Force Base

Loading…

Próximas Passagens (próximas 24 horas)

TLE

AtualizadoSource: AMSAT

Época: Sep 13, 2026, 21:37 UTC

1 62391U 24247Q   26256.90123737  .00035804  00000-0  58455-3 0  9993
2 62391  44.9714 121.6324 0009070 196.0682 163.9923 15.51965735 97072

Acompanhe LASARsat em tempo real com AllMySat

Download on the App Store